Location: Fredericksburg
(30.2750°N, 98.8720°W)
Time: 19:18:40
(UTC-05:00)

ISS - All Passes

Search period start: 26 May 2016 00:00
Search period end: 05 June 2016 00:00
Orbit: 402 x 404 km, 51.6° (Epoch: 26 May)

Date Brightness Start Highest point End Pass type
(mag) Time Alt. Az. Time Alt. Az. Time Alt. Az.
26 May - 05:26:13 10° N 05:28:24 17° NE 05:30:35 10° E visible
26 May - 07:01:57 10° WNW 07:04:54 33° SW 07:07:51 10° SSE daylight
26 May - 22:00:35 10° SW 22:03:50 73° NW 22:07:05 10° NE visible
27 May - 06:08:58 10° NW 06:12:13 84° SW 06:15:27 10° SE visible
27 May - 21:08:00 10° SSW 21:11:06 43° SE 21:14:13 10° ENE visible
27 May - 22:45:55 10° WNW 22:47:42 14° NW 22:49:29 10° N visible
28 May - 05:16:21 10° NNW 05:19:26 39° NE 05:22:30 10° ESE visible
28 May - 06:54:24 10° WSW 06:55:32 11° SW 06:56:42 10° SW daylight
28 May - 20:16:05 10° S 20:18:27 19° SE 20:20:49 10° E daylight
28 May - 21:51:57 10° W 21:54:45 25° NW 21:57:31 10° NNE visible
29 May - 04:24:03 10° NNW 04:26:31 20° NE 04:28:59 10° E visible
29 May - 06:00:10 10° WNW 06:02:55 26° SW 06:05:40 10° S visible
29 May - 20:58:40 10° SW 21:01:52 55° NW 21:05:04 10° NE visible
30 May - 03:32:31 10° NNE 03:33:30 11° NNE 03:34:28 10° NE visible
30 May - 05:07:00 10° NW 05:10:13 64° SW 05:13:26 10° SE visible
30 May - 20:05:53 10° SSW 20:09:04 58° SE 20:12:17 10° NE daylight
30 May - 21:44:31 10° WNW 21:45:45 12° NW 21:47:01 10° N visible
31 May - 04:14:15 10° NNW 04:17:25 50° NE 04:20:35 10° ESE night (unlit)
31 May - 19:13:41 10° S 19:16:21 24° SE 19:19:02 10° ENE daylight
31 May - 20:50:10 10° W 20:52:43 21° NW 20:55:18 10° NNE daylight
01 Jun - 03:21:49 10° NNW 03:24:31 24° NE 03:27:13 10° E night (unlit)
01 Jun - 04:58:20 10° WNW 05:00:49 20° SW 05:03:18 10° S night (unlit)
01 Jun - 18:23:00 10° SE 18:23:42 11° SE 18:24:24 10° ESE daylight
01 Jun - 19:56:40 10° WSW 19:59:48 43° NW 20:02:55 10° NNE daylight
02 Jun - 02:29:52 10° N 02:31:29 13° NE 02:33:05 10° ENE night (unlit)
02 Jun - 04:04:58 10° NW 04:08:06 48° SW 04:11:15 10° SSE night (unlit)
02 Jun - 19:03:42 10° SW 19:06:56 76° SE 19:10:11 10° NE daylight
03 Jun - 03:12:03 10° NW 03:15:17 66° NE 03:18:30 10° SE night (unlit)
03 Jun - 18:11:16 10° SSW 18:14:09 30° SE 18:17:04 10° ENE daylight
03 Jun - 19:48:19 10° W 19:50:37 18° NW 19:52:55 10° N daylight
04 Jun - 02:19:29 10° NNW 02:22:23 29° NE 02:25:15 10° ESE night (unlit)
04 Jun - 03:56:29 10° W 03:58:36 16° SW 04:00:42 10° SSW night (unlit)
04 Jun - 17:19:46 10° SSE 17:21:27 13° SE 17:23:07 10° E daylight
04 Jun - 18:54:36 10° WSW 18:57:36 34° NW 19:00:38 10° NNE daylight
